Location: Kumla
(59.1265°N, 15.1401°E)
Time: 10:53:29
(UTC+01:00)

Vanguard 2 Rocket - Pass Details

Date: 11 December 2023
Orbit: 554 x 3309 km, 32.9° (Epoch: 27 February)

Event Time Altitude Azimuth Distance (km) Brightness Sun altitude
Rises 19:14:28 0° 266° (W) 7,148 12.6 -30.0°
Reaches altitude 10° 19:24:24 10° 242° (WSW) 6,267 11.8 -31.3°
Maximum altitude 19:30:04 12° 225° (SW) 6,031 11.4 -32.0°
Drops below altitude 10° 19:35:36 10° 208° (SSW) 6,037 11.2 -32.7°
Sets 19:44:42 0° 183° (S) 6,567 11.2 -33.9°
